Aeroporto :
LOGIN :

Iscrizione | Disclaimer

   EN    FR    IT 

 










Sommario :    VFR   VFR Marginale   IFR   IFR Intensivo   IFR Molto Intensivo
Visibilità : 
Base nubi : 
>= 8 km
>= 3000ft
5 / 8 km
1000 / 3000 ft
1500m / 5 km
500 / 1000 ft
800 / 1500m
200 / 500 ft
< 800m
< 200 ft
Simboli :   Temporali  Nebbia  Neve Forte  Precipitazioni Forti  Vento > 20 kt
SIGMETs :   Varie  Temporali  Ghiacco  Turbolenza  Onda orograficha  Ceneri Vulcaniche







- Altitudine del aeroporto : 659 ft
- Codice IATA : LYN
- Carte del aeroporto


LFLY - Lyon Bron

ULTIMO METAR :
  • 222130Z AUTO 34004KT CAVOK 15/06 Q1018 NOSIG

METARs OBSOLETI :
  • 222100Z AUTO 35004KT CAVOK 16/06 Q1018 NOSIG
  • 222030Z AUTO 36005KT CAVOK 16/06 Q1018 NOSIG
  • 222000Z AUTO 01005KT CAVOK 17/07 Q1018 NOSIG
  • 221930Z AUTO 01005KT CAVOK 18/07 Q1018 NOSIG
  • 221900Z AUTO 01005KT CAVOK 18/07 Q1018 NOSIG

TAF TAF LFLY
Valido dal 22 a 18 ore il 23 a 18 ore UTC


221700Z 2218/2318 02010KT CAVOK
BECMG 2221/2224 36003KT
ATIS : +33 4 72 15 87 96
Nessun NOTAM noto per questo aeroporto.



MetMap, La meteo Aeronautica in un colpo d'occhio ! - Copyright ORBIFLY Dicembre 2007 - Disclaimer

ORBIFLY MET'MAP TEAM :

Programmazione e sviluppo : Alexandra Zaïnal
Concezione e sviluppo : Baudouin d'Aumeries
Co-Programmazione e sviluppo : Marc-Olivier Méhu
Supporto tecnico e logistico : Manuel Goepfert
Aiuto per la traduzione : Arnaldo La Scala

Contatto : metmap@orbifly.com




FONTI E CREDITI :

   NOAA